This is the latest recevied weather packets stored in our database for station/object 4S6DRJ-13. If no packets are shown the sender has not sent any weather packets the latest 10 day(s).
| Time | Temp. | Humidity | Pressure | Rain* | Wind** | Luminosity | Snow |
|---|---|---|---|---|---|---|---|
| 1787976934 | 30° C | 77% | 1010.9 hPa | 0 mm | 1.34 m/s, 221° | 700 W/m² | - |
| 1787976873 | 30° C | 76% | 1011.1 hPa | 0 mm | 3.58 m/s, 214° | 851 W/m² | - |
| 1787976812 | 30° C | 78% | 1010.8 hPa | 0 mm | 0.89 m/s, 273° | 340 W/m² | - |
| 1787976751 | 30° C | 77% | 1011.1 hPa | 0 mm | 0.89 m/s, 171° | 861 W/m² | - |
| 1787976690 | 30° C | 77% | 1011 hPa | 0 mm | 0.45 m/s, 189° | 372 W/m² | - |
| 1787976629 | 30° C | 76% | 1010.9 hPa | 0 mm | 2.24 m/s, 257° | 317 W/m² | - |
| 1787976568 | 30° C | 77% | 1011 hPa | 0 mm | 1.34 m/s, 39° | 840 W/m² | - |
| 1787976507 | 30° C | 78% | 1011 hPa | 0 mm | 0.89 m/s, 266° | 733 W/m² | - |
| 1787976446 | 30° C | 78% | 1010.9 hPa | 0 mm | 2.24 m/s, 228° | 734 W/m² | - |
| 1787976385 | 29.44° C | 78% | 1011 hPa | 0 mm | 1.34 m/s, 237° | 324 W/m² | - |
| 1787976324 | 29.44° C | 79% | 1011.1 hPa | 0 mm | 0 m/s | 392 W/m² | - |
| 1787976264 | 29.44° C | 79% | 1011.1 hPa | 0 mm | 2.68 m/s, 232° | 857 W/m² | - |
| 1787976202 | 29.44° C | 79% | 1011 hPa | 0 mm | 1.79 m/s, 159° | 822 W/m² | - |
| 1787976141 | 29.44° C | 79% | 1011.2 hPa | 0 mm | 2.24 m/s, 202° | 817 W/m² | - |
| 1787976080 | 29.44° C | 81% | 1010.9 hPa | 0 mm | 1.34 m/s, 256° | 786 W/m² | - |
| 1787976019 | 29.44° C | 81% | 1010.9 hPa | 0 mm | 1.34 m/s, 277° | 763 W/m² | - |
| 1787975958 | 28.89° C | 81% | 1011.1 hPa | 0 mm | 1.79 m/s, 205° | 773 W/m² | - |
| 1787975897 | 28.89° C | 81% | 1011.1 hPa | 0 mm | 1.79 m/s, 196° | 413 W/m² | - |
| 1787975836 | 28.89° C | 81% | 1011.1 hPa | 0 mm | 0.89 m/s, 327° | 486 W/m² | - |
| 1787975775 | 28.89° C | 81% | 1011 hPa | 0 mm | 2.24 m/s, 218° | 259 W/m² | - |
| 1787975714 | 28.89° C | 81% | 1011 hPa | 0 mm | 1.34 m/s, 231° | 182 W/m² | - |
| 1787975653 | 29.44° C | 81% | 1011.1 hPa | 0 mm | 0.89 m/s, 224° | 165 W/m² | - |
| 1787975592 | 29.44° C | 80% | 1011 hPa | 0 mm | 1.79 m/s, 341° | 149 W/m² | - |
| 1787975531 | 29.44° C | 80% | 1010.9 hPa | 0 mm | 1.34 m/s, 235° | 137 W/m² | - |
| 1787975470 | 29.44° C | 80% | 1011 hPa | 0 mm | 3.13 m/s, 61° | 135 W/m² | - |
* Rain latest hour (hover to see other rain measurements)
** Current wind speed in m/s (hover to see current wind gust speed)